K4AVM-13 Weather Reports


time (UTC)temp
C
wind
direction
speed
KPH
gust
KPH
rain 1hr
cm
rain 24hr
cm
rain mn
cm
humidity
%
barometer
mb
20260505163830 26 189 1.6 4.8 0.00 0.00 0.00 42 1015.3
20260505163328 27 168 3.2 9.7 0.00 0.00 0.00 44 1015.3
20260505162826 27 187 1.6 6.4 0.00 0.00 0.00 42 1015.5
20260505162322 27 201 1.6 4.8 0.00 0.00 0.00 42 1015.5
20260505161819 26 133 4.8 4.8 0.00 0.00 0.00 44 1015.8
20260505161317 26 110 4.8 4.8 0.00 0.00 0.00 45 1015.9
20260505160814 26 192 6.4 6.4 0.00 0.00 0.00 46 1015.8
20260505160312 26 235 1.6 9.7 0.00 0.00 0.00 46 1016.1
20260505153250 25 124 0.0 6.4 0.00 0.00 0.00 48 1016.2
20260505152747 25 154 1.6 4.8 0.00 0.00 0.00 48 1016.3
20260505152244 25 148 0.0 6.4 0.00 0.00 0.00 49 1016.1
20260505151738 25 177 1.6 3.2 0.00 0.00 0.00 48 1016.2
20260505151236 25 197 1.6 3.2 0.00 0.00 0.00 49 1016.2
20260505150732 25 131 4.8 6.4 0.00 0.00 0.00 48 1016.3
20260505150230 25 142 3.2 4.8 0.00 0.00 0.00 50 1016.1
20260505140154 22 143 0.0 1.6 0.00 0.00 0.00 54 1016.1
20260505130118 20 222 0.0 1.6 0.00 0.00 0.00 61 1016.5
20260505124607 18 180 1.6 1.6 0.00 0.00 0.00 65 1016.5
20260505124104 18 177 1.6 3.2 0.00 0.00 0.00 67 1016.6
20260505123600 18 153 1.6 1.6 0.00 0.00 0.00 68 1016.5
20260505123057 18 179 1.6 1.6 0.00 0.00 0.00 68 1016.6
20260505122553 17 144 0.0 3.2 0.00 0.00 0.00 68 1016.6
20260505122051 17 166 1.6 4.8 0.00 0.00 0.00 70 1016.3
20260505121547 17 162 0.0 3.2 0.00 0.00 0.00 70 1016.7
20260505121044 17 154 0.0 3.2 0.00 0.00 0.00 71 1016.5
20260505120540 17 163 3.2 9.7 0.00 0.00 0.00 71 1016.5
20260505120036 17 189 3.2 11.3 0.00 0.00 0.00 72 1016.2
20260505115531 16 129 3.2 4.8 0.00 0.00 0.00 72 1016.2
20260505115029 16 139 1.6 6.4 0.00 0.00 0.00 75 1016.1
20260505114525 15 159 0.0 0.0 0.00 0.00 0.00 76 1016.2
20260505114022 15 124 0.0 1.6 0.00 0.00 0.00 75 1016.1
20260505113518 15 151 0.0 1.6 0.00 0.00 0.00 75 1016.0
20260505113014 15 166 3.2 6.4 0.00 0.00 0.00 76 1015.9
20260505112511 15 160 3.2 4.8 0.00 0.00 0.00 76 1015.9
20260505112009 15 144 1.6 4.8 0.00 0.00 0.00 77 1015.8
20260505111502 15 126 0.0 4.8 0.00 0.00 0.00 78 1015.7
20260505110959 14 156 0.0 3.2 0.00 0.00 0.00 80 1015.8
20260505110455 14 151 0.0 1.6 0.00 0.00 0.00 80 1015.7
20260505101927 14 156 0.0 1.6 0.00 0.00 0.00 79 1015.4
20260505101421 14 151 1.6 3.2 0.00 0.00 0.00 80 1015.5
20260505100917 14 151 0.0 1.6 0.00 0.00 0.00 79 1015.5
20260505100414 14 151 0.0 1.6 0.00 0.00 0.00 79 1015.1
20260505095909 15 141 0.0 0.0 0.00 0.00 0.00 78 1015.3
20260505095407 15 144 0.0 3.2 0.00 0.00 0.00 77 1015.4
20260505094903 14 116 0.0 0.0 0.00 0.00 0.00 78 1015.3
20260505094400 15 166 0.0 1.6 0.00 0.00 0.00 77 1015.2
20260505093855 15 135 0.0 1.6 0.00 0.00 0.00 76 1015.1
20260505093353 15 108 1.6 3.2 0.00 0.00 0.00 76 1015.2
20260505092850 15 159 1.6 1.6 0.00 0.00 0.00 75 1015.3
20260505092348 15 208 1.6 3.2 0.00 0.00 0.00 75 1015.0
20260505091845 15 181 1.6 3.2 0.00 0.00 0.00 75 1015.2
20260505091343 15 154 0.0 6.4 0.00 0.00 0.00 75 1015.0
20260505090841 15 155 0.0 0.0 0.00 0.00 0.00 75 1015.2
20260505090339 15 151 0.0 3.2 0.00 0.00 0.00 74 1015.2
20260505085836 15 126 0.0 1.6 0.00 0.00 0.00 74 1015.1
20260505085334 15 136 0.0 4.8 0.00 0.00 0.00 74 1015.1
20260505084831 15 166 0.0 3.2 0.00 0.00 0.00 73 1015.2
20260505084330 16 117 0.0 4.8 0.00 0.00 0.00 73 1015.1
20260505083826 16 168 0.0 3.2 0.00 0.00 0.00 72 1015.1
20260505083324 15 162 0.0 1.6 0.00 0.00 0.00 73 1015.0
20260505082820 15 121 0.0 9.7 0.00 0.00 0.00 73 1015.1
20260505082317 15 152 0.0 1.6 0.00 0.00 0.00 73 1015.1
20260505081813 15 153 0.0 1.6 0.00 0.00 0.00 73 1015.1
20260505081310 15 113 0.0 0.0 0.00 0.00 0.00 73 1015.2
20260505080807 15 141 0.0 1.6 0.00 0.00 0.00 72 1015.2
20260505080303 16 141 0.0 0.0 0.00 0.00 0.00 72 1015.0
20260505075758 16 193 1.6 1.6 0.00 0.00 0.00 72 1015.2
20260505075256 16 116 1.6 3.2 0.00 0.00 0.00 71 1015.1
20260505074753 16 195 0.0 1.6 0.00 0.00 0.00 71 1015.0
20260505074250 16 151 0.0 1.6 0.00 0.00 0.00 71 1015.1
20260505073747 16 162 0.0 1.6 0.00 0.00 0.00 71 1015.2
20260505073245 16 149 0.0 0.0 0.00 0.00 0.00 71 1014.9
20260505072742 16 174 0.0 1.6 0.00 0.00 0.00 70 1014.8
20260505072238 16 151 1.6 1.6 0.00 0.00 0.00 70 1014.7
20260505071733 16 145 0.0 3.2 0.00 0.00 0.00 70 1014.9
20260505071231 16 137 1.6 3.2 0.00 0.00 0.00 70 1014.8
20260505070728 16 141 0.0 0.0 0.00 0.00 0.00 70 1014.7
20260505070224 16 166 0.0 0.0 0.00 0.00 0.00 69 1014.5
20260505065720 16 162 1.6 1.6 0.00 0.00 0.00 69 1014.8
20260505065217 16 99 0.0 0.0 0.00 0.00 0.00 68 1015.0
20260505064714 16 141 0.0 1.6 0.00 0.00 0.00 67 1014.8
20260505064212 16 151 0.0 3.2 0.00 0.00 0.00 67 1014.6
20260505063709 16 173 0.0 3.2 0.00 0.00 0.00 66 1014.6
20260505063205 16 152 0.0 3.2 0.00 0.00 0.00 66 1014.5
20260505062701 16 154 0.0 1.6 0.00 0.00 0.00 65 1014.5
20260505062200 17 135 0.0 4.8 0.00 0.00 0.00 64 1014.5
20260505061656 17 132 3.2 9.7 0.00 0.00 0.00 64 1014.4
20260505061154 17 200 1.6 4.8 0.00 0.00 0.00 64 1014.3
20260505060651 17 141 0.0 3.2 0.00 0.00 0.00 64 1014.5
20260505060148 17 186 3.2 9.7 0.00 0.00 0.00 64 1014.6
20260505055643 17 155 0.0 1.6 0.00 0.00 0.00 63 1014.6
20260505055140 17 151 3.2 6.4 0.00 0.00 0.00 63 1014.5
20260505054638 17 145 0.0 3.2 0.00 0.00 0.00 63 1014.6
20260505054136 17 115 1.6 9.7 0.00 0.00 0.00 62 1014.6
20260505053633 17 151 1.6 4.8 0.00 0.00 0.00 62 1014.6
20260505053129 17 177 0.0 3.2 0.00 0.00 0.00 61 1014.6
20260505052626 17 183 0.0 4.8 0.00 0.00 0.00 61 1014.5
20260505052124 17 132 1.6 4.8 0.00 0.00 0.00 61 1014.6
20260505051621 17 123 1.6 6.4 0.00 0.00 0.00 59 1014.7
20260505051119 17 118 1.6 11.3 0.00 0.00 0.00 59 1014.6
20260505050616 17 160 3.2 9.7 0.00 0.00 0.00 58 1014.7
20260505050114 17 174 1.6 3.2 0.00 0.00 0.00 58 1014.5
20260505041544 18 136 1.6 9.7 0.00 0.00 0.00 54 1014.3
20260505041041 18 171 0.0 1.6 0.00 0.00 0.00 54 1014.2
20260505040538 18 141 1.6 3.2 0.00 0.00 0.00 53 1014.0
20260505040036 18 193 3.2 4.8 0.00 0.00 0.00 54 1014.2
20260505035531 18 132 0.0 1.6 0.00 0.00 0.00 54 1014.2
20260505035028 18 149 0.0 3.2 0.00 0.00 0.00 55 1014.2
20260505034525 18 137 0.0 1.6 0.00 0.00 0.00 54 1014.3
20260505034022 18 178 0.0 0.0 0.00 0.00 0.00 54 1014.2
20260505033519 18 151 0.0 0.0 0.00 0.00 0.00 54 1014.3
20260505033017 18 170 1.6 1.6 0.00 0.00 0.00 53 1014.1
20260505032514 18 141 0.0 3.2 0.00 0.00 0.00 52 1014.1
20260505032010 18 150 0.0 0.0 0.00 0.00 0.00 54 1014.0
20260505031508 18 153 0.0 1.6 0.00 0.00 0.00 53 1014.0
20260505031004 18 150 0.0 0.0 0.00 0.00 0.00 53 1014.1
20260505030501 18 128 0.0 0.0 0.00 0.00 0.00 54 1014.1
20260505025956 18 141 0.0 0.0 0.00 0.00 0.00 54 1014.0
20260505025453 18 159 0.0 1.6 0.00 0.00 0.00 54 1014.1
20260505024952 18 149 0.0 0.0 0.00 0.00 0.00 53 1014.0
20260505024449 18 135 0.0 1.6 0.00 0.00 0.00 53 1014.1
20260505023946 18 153 0.0 1.6 0.00 0.00 0.00 53 1014.0
20260505023443 18 159 3.2 3.2 0.00 0.00 0.00 52 1014.1
20260505022940 18 154 0.0 0.0 0.00 0.00 0.00 52 1014.0
20260505022438 18 155 0.0 3.2 0.00 0.00 0.00 51 1014.1
20260505021935 18 153 0.0 3.2 0.00 0.00 0.00 50 1014.0
20260505021431 19 180 0.0 3.2 0.00 0.00 0.00 50 1014.1
20260505020927 18 166 0.0 3.2 0.00 0.00 0.00 51 1014.0
20260505020422 18 150 0.0 0.0 0.00 0.00 0.00 52 1013.8
20260505015919 18 155 0.0 0.0 0.00 0.00 0.00 51 1013.9
20260505015417 18 145 1.6 1.6 0.00 0.00 0.00 50 1014.0
20260505014914 18 153 0.0 0.0 0.00 0.00 0.00 51 1014.0
20260505014411 19 165 0.0 0.0 0.00 0.00 0.00 50 1013.8
20260505013908 19 165 0.0 0.0 0.00 0.00 0.00 50 1013.7
20260505013404 19 166 0.0 0.0 0.00 0.00 0.00 48 1013.7
20260505012903 20 151 0.0 0.0 0.00 0.00 0.00 48 1013.6
20260505012400 20 155 0.0 0.0 0.00 0.00 0.00 48 1013.4
20260505011856 20 151 0.0 0.0 0.00 0.00 0.00 47 1013.4
20260505011353 20 163 0.0 1.6 0.00 0.00 0.00 45 1013.5
20260505010849 20 151 0.0 0.0 0.00 0.00 0.00 45 1013.1
20260505010345 21 155 0.0 0.0 0.00 0.00 0.00 44 1013.4
20260505005842 21 141 0.0 0.0 0.00 0.00 0.00 43 1013.2
20260505005338 21 151 0.0 1.6 0.00 0.00 0.00 43 1013.3
20260505004836 20 134 0.0 0.0 0.00 0.00 0.00 44 1013.2
20260505004332 21 141 0.0 0.0 0.00 0.00 0.00 46 1013.2
20260505003830 21 124 0.0 1.6 0.00 0.00 0.00 46 1013.4
20260505003327 21 151 0.0 1.6 0.00 0.00 0.00 44 1013.6
20260505002822 20 235 0.0 1.6 0.00 0.00 0.00 44 1013.2
20260505002320 20 155 0.0 1.6 0.00 0.00 0.00 44 1013.3
20260505001818 20 147 0.0 0.0 0.00 0.00 0.00 44 1013.4
20260505001315 20 155 0.0 0.0 0.00 0.00 0.00 44 1013.5
20260505000812 21 153 0.0 1.6 0.00 0.00 0.00 43 1013.3
20260505000310 20 179 1.6 1.6 0.00 0.00 0.00 42 1013.4
20260504235806 21 154 0.0 0.0 0.00 0.00 0.00 42 1013.4
20260504235304 21 154 0.0 0.0 0.00 0.00 0.00 41 1013.3
20260504234800 21 133 1.6 1.6 0.00 0.00 0.00 40 1013.4
20260504234258 22 158 0.0 1.6 0.00 0.00 0.00 40 1013.1
20260504233753 22 146 0.0 1.6 0.00 0.00 0.00 39 1013.2
20260504233249 22 157 0.0 1.6 0.00 0.00 0.00 39 1013.3
20260504232746 22 189 1.6 3.2 0.00 0.00 0.00 37 1013.1
20260504232243 22 180 1.6 3.2 0.00 0.00 0.00 36 1013.0
20260504231740 23 149 3.2 4.8 0.00 0.00 0.00 36 1013.0
20260504231237 23 119 1.6 3.2 0.00 0.00 0.00 36 1013.0
20260504230732 23 154 1.6 9.7 0.00 0.00 0.00 35 1013.0
20260504230231 23 214 1.6 4.8 0.00 0.00 0.00 36 1013.1
20260504225730 23 187 3.2 11.3 0.00 0.00 0.00 34 1013.0
20260504225226 23 161 1.6 3.2 0.00 0.00 0.00 34 1013.1
20260504224723 23 134 3.2 6.4 0.00 0.00 0.00 34 1013.2
20260504224220 23 170 3.2 6.4 0.00 0.00 0.00 34 1013.2
20260504223716 23 186 3.2 6.4 0.00 0.00 0.00 34 1013.2
20260504223212 24 198 0.0 4.8 0.00 0.00 0.00 33 1013.1
20260504222709 24 156 3.2 4.8 0.00 0.00 0.00 34 1013.1
20260504222206 24 183 1.6 1.6 0.00 0.00 0.00 33 1013.0
20260504221703 24 142 0.0 3.2 0.00 0.00 0.00 33 1013.1
20260504221200 25 214 3.2 6.4 0.00 0.00 0.00 32 1012.9
20260504220656 24 219 1.6 6.4 0.00 0.00 0.00 32 1012.9
20260504220155 24 161 6.4 11.3 0.00 0.00 0.00 33 1013.1
20260504215650 25 167 0.0 4.8 0.00 0.00 0.00 32 1012.9
20260504215148 25 132 0.0 1.6 0.00 0.00 0.00 33 1012.9
20260504214643 25 146 4.8 6.4 0.00 0.00 0.00 31 1012.8
20260504214140 25 154 3.2 6.4 0.00 0.00 0.00 32 1012.9
20260504213637 26 226 4.8 6.4 0.00 0.00 0.00 31 1013.1
20260504213134 26 171 0.0 16.1 0.00 0.00 0.00 31 1012.9
20260504212630 26 172 1.6 9.7 0.00 0.00 0.00 31 1013.1
20260504212127 26 219 3.2 9.7 0.00 0.00 0.00 30 1012.9
20260504211625 26 184 0.0 3.2 0.00 0.00 0.00 33 1013.1
20260504211121 26 216 3.2 9.7 0.00 0.00 0.00 31 1013.0
20260504210619 27 183 1.6 9.7 0.00 0.00 0.00 30 1012.9
20260504210114 26 195 0.0 4.8 0.00 0.00 0.00 31 1013.0
20260504205612 26 165 1.6 6.4 0.00 0.00 0.00 34 1012.8
20260504205110 25 196 4.8 6.4 0.00 0.00 0.00 32 1013.0
20260504204608 26 193 3.2 6.4 0.00 0.00 0.00 31 1012.9
20260504204107 26 217 1.6 6.4 0.00 0.00 0.00 31 1013.1
20260504203605 26 188 0.0 4.8 0.00 0.00 0.00 31 1013.1
20260504203102 26 186 1.6 4.8 0.00 0.00 0.00 31 1013.3
20260504202557 26 202 4.8 9.7 0.00 0.00 0.00 31 1013.3
20260504202054 26 178 3.2 3.2 0.00 0.00 0.00 33 1013.5
20260504201551 26 180 0.0 3.2 0.00 0.00 0.00 31 1013.3
20260504201049 25 183 0.0 3.2 0.00 0.00 0.00 34 1013.3
20260504200545 25 214 4.8 9.7 0.00 0.00 0.00 32 1013.3
20260504200042 26 143 8.0 12.9 0.00 0.00 0.00 31 1013.4
20260504195538 26 169 1.6 3.2 0.00 0.00 0.00 32 1013.5
20260504195035 26 118 1.6 9.7 0.00 0.00 0.00 32 1013.6
20260504194531 25 183 3.2 3.2 0.00 0.00 0.00 32 1013.8
20260504194027 25 290 4.8 4.8 0.00 0.00 0.00 32 1013.8
20260504193524 25 169 0.0 0.0 0.00 0.00 0.00 32 1013.9
20260504193022 24 186 3.2 11.3 0.00 0.00 0.00 33 1014.0
20260504192520 24 130 3.2 4.8 0.00 0.00 0.00 33 1014.1
20260504192018 25 169 0.0 0.0 0.00 0.00 0.00 34 1014.1
20260504191516 25 211 3.2 4.8 0.00 0.00 0.00 32 1014.1
20260504191012 25 182 1.6 1.6 0.00 0.00 0.00 34 1014.5
20260504190508 25 203 1.6 3.2 0.00 0.00 0.00 32 1014.4
20260504190004 25 190 0.0 3.2 0.00 0.00 0.00 31 1014.5
20260504185501 24 135 3.2 4.8 0.00 0.00 0.00 30 1014.3
20260504184958 24 160 3.2 3.2 0.00 0.00 0.00 31 1014.4
20260504184453 24 207 3.2 6.4 0.00 0.00 0.00 31 1014.7
20260504183949 24 144 3.2 9.7 0.00 0.00 0.00 31 1014.5
20260504183446 23 175 0.0 3.2 0.00 0.00 0.00 34 1014.5
20260504182944 24 215 3.2 9.7 0.00 0.00 0.00 31 1014.6
20260504182440 24 181 0.0 1.6 0.00 0.00 0.00 35 1014.8
20260504181938 24 151 3.2 4.8 0.00 0.00 0.00 34 1014.9
20260504181435 23 214 1.6 3.2 0.00 0.00 0.00 32 1015.1
20260504180934 23 207 4.8 4.8 0.00 0.00 0.00 34 1015.1
20260504180432 23 142 1.6 3.2 0.00 0.00 0.00 32 1014.9
20260504175930 23 148 1.6 3.2 0.00 0.00 0.00 36 1015.1
20260504175427 23 133 1.6 6.4 0.00 0.00 0.00 33 1015.2
20260504174925 23 209 3.2 3.2 0.00 0.00 0.00 34 1015.1
20260504174422 22 192 1.6 3.2 0.00 0.00 0.00 35 1015.2
20260504173919 22 195 3.2 4.8 0.00 0.00 0.00 34 1015.4
20260504173416 22 172 3.2 4.8 0.00 0.00 0.00 34 1015.3
20260504172913 23 207 4.8 6.4 0.00 0.00 0.00 33 1015.3
20260504172409 23 157 8.0 9.7 0.00 0.00 0.00 32 1015.5
20260504171905 24 175 1.6 4.8 0.00 0.00 0.00 36 1015.5
20260504171403 23 160 0.0 1.6 0.00 0.00 0.00 33 1015.6
20260504170900 23 118 1.6 3.2 0.00 0.00 0.00 32 1015.7
20260504170356 23 174 1.6 3.2 0.00 0.00 0.00 34 1015.9